Wind_Speed
23 22 22 23 24 25 27 27 27 27 26 25 24 24 25 26 27 29 31 32 33 33 33 32 31 30 30 30 30 29 29 29 30 30 30 30 30 31 31 32 32 33 33 34 34 35 36 37 38 38 39 40 40 41 41 42 42 43 43 44 44 44 44 43 43 40 38 38 39 39 40 41 41 41 41 40 41 42 42 42 44 45 46 47 49
25 25 26 26 26 27 29 30 29 28 28 27 26 26 26 26 26 26 28 29 31 32 33 34 34 33 33 33 32 32 32 32 32 32 32 33 33 33 34 34 34 35 36 36 37 37 38 38 39 40 41 41 42 43 43 44 44 45 45 46 46 47 47 47 47 45 42 41 42 42 42 43 43 42 43 43 42 42 43 43 43 43 44 45 46
29 29 30 29 29 29 29 31 31 30 29 30 30 31 30 30 29 28 28 28 29 29 30 32 33 34 34 34 34 34 34 34 34 34 34 34 35 35 35 36 36 37 37 38 39 39 40 40 41 41 42 43 43 44 45 45 46 46 47 48 48 49 50 50 50 49 47 45 45 45 45 45 45 45 45 45 45 44 44 43 43 43 43 43 44
33 33 33 32 32 31 30 32 33 32 31 30 32 34 34 34 33 31 29 28 29 30 30 30 31 32 32 32 33 34 35 35 35 35 35 34 35 35 35 36 36 37 38 38 39 40 40 41 42 43 43 44 45 46 46 47 48 48 49 50 51 51 52 52 52 52 51 49 48 48 47 48 48 48 48 47 47 47 46 45 44 44 43 44 43
36 37 36 35 34 34 33 34 35 35 34 33 32 34 35 35 35 33 31 29 29 30 31 31 31 31 31 31 32 33 34 35 35 35 35 34 33 33 34 35 36 37 37 37 37 37 37 38 38 40 41 41 42 44 46 47 48 49 50 51 53 54 55 56 56 55 55 53 51 50 50 50 51 51 51 50 50 50 49 48 47 46 45 44 44
39 39 38 38 37 36 36 36 36 37 37 36 36 37 37 37 37 37 36 35 34 32 32 33 32 32 32 33 33 34 34 35 36 35 35 35 33 33 33 34 35 36 36 35 35 33 32 32 32 33 34 35 36 38 41 43 45 47 49 51 52 54 55 57 59 59 59 58 56 54 53 53 53 53 54 54 53 52 52 52 50 49 48 47 45
42 41 41 41 40 40 39 38 38 38 38 38 39 40 43 44 42 41 41 41 40 38 36 36 35 34 34 35 36 35 35 36 37 37 36 35 34 34 34 34 34 33 33 32 31 29 28 27 28 29 30 31 32 34 36 39 41 43 45 47 49 52 53 55 58 60 61 62 61 59 57 56 56 55 56 57 57 56 55 54 54 53 51 50 48
46 45 44 44 44 43 43 41 40 40 40 40 40 41 45 47 47 46 44 43 43 42 41 38 37 37 37 38 39 38 37 36 37 37 37 37 36 36 35 35 34 33 32 31 30 29 28 28 29 30 31 32 33 34 36 38 40 41 43 46 47 49 51 53 55 57 60 62 62 62 61 60 59 58 58 59 59 59 58 57 56 55 55 53 52
49 49 48 47 47 48 48 46 44 43 42 43 42 42 45 49 49 47 44 43 44 46 44 42 42 42 42 41 42 41 39 38 38 38 38 38 38 38 38 37 36 34 33 33 32 31 31 31 31 32 32 33 34 35 36 38 39 40 42 45 47 48 50 51 53 55 57 59 61 62 62 62 62 61 60 60 61 62 62 61 59 58 57 57 55
53 52 52 52 52 52 52 50 49 47 45 44 45 46 48 50 51 51 50 48 48 49 48 47 47 47 44 43 42 41 39 39 40 40 41 40 40 40 40 39 39 37 36 35 35 34 34 34 34 34 34 35 35 36 36 38 39 40 41 43 46 47 49 51 52 54 56 57 59 60 61 61 61 62 62 61 62 63 64 64 63 61 60 59 58
56 55 55 55 55 54 54 53 53 51 49 48 49 50 51 52 52 53 52 50 49 50 49 50 50 47 45 43 41 40 39 39 40 42 43 43 43 42 42 42 42 41 40 39 38 38 37 37 37 37 37 37 37 37 38 39 41 42 43 44 46 48 49 50 52 54 56 57 58 59 59 59 59 60 62 62 63 63 64 65 65 65 63 62 61
57 57 57 57 57 57 57 57 56 55 54 54 53 53 53 53 54 54 51 49 49 50 50 51 52 49 46 44 42 42 42 42 43 43 43 44 45 44 43 43 44 44 44 43 42 41 40 39 39 40 40 40 40 40 41 42 43 43 45 46 47 49 51 52 53 54 56 57 58 59 60 59 58 59 61 63 63 64 65 66 67 67 66 65 63
59 59 60 60 61 62 62 61 60 59 58 58 57 56 55 55 56 57 56 54 53 52 50 49 49 48 46 44 43 44 45 44 44 44 43 43 45 47 46 45 45 47 47 47 46 44 42 41 42 42 43 43 44 44 44 45 45 46 47 48 50 51 53 55 56 57 58 59 59 59 60 61 60 59 60 63 64 64 65 66 66 67 67 66 65
62 62 63 63 64 64 63 62 61 60 59 58 58 57 56 56 55 54 54 55 55 55 54 50 45 43 43 45 47 48 47 46 45 45 45 45 46 48 48 46 46 48 49 49 49 47 45 44 44 45 46 47 48 48 48 48 48 49 50 51 53 55 57 59 60 62 63 63 62 61 61 62 63 61 61 62 64 65 65 65 66 67 67 66 65
63 63 63 63 63 63 63 62 61 59 58 58 59 59 58 58 56 52 49 49 48 49 53 53 50 49 50 52 51 51 50 50 50 50 50 49 46 45 46 45 46 48 49 51 51 49 47 46 46 46 47 49 51 52 52 51 51 52 52 54 56 58 60 63 65 67 68 68 67 64 63 63 64 64 63 63 64 65 65 66 66 66 67 66 65
62 62 62 63 63 62 62 62 61 60 60 59 60 60 60 60 59 57 54 52 50 48 49 50 51 52 54 52 50 51 53 53 54 54 54 52 48 44 43 44 45 47 49 51 51 50 49 48 48 49 50 52 54 54 54 54 54 54 55 56 59 61 63 66 69 71 72 72 70 67 65 63 63 64 64 64 64 64 65 66 66 67 67 66 65
62 62 61 61 61 61 61 61 62 62 62 61 61 61 62 61 60 59 59 58 57 54 53 53 53 53 53 50 48 51 53 55 55 54 54 53 51 49 47 46 47 47 48 49 50 50 50 49 50 53 54 55 56 55 55 56 57 57 58 59 62 64 67 70 72 72 72 72 70 68 66 63 63 64 64 65 65 65 65 65 65 66 67 66 65
60 60 59 59 59 60 59 59 60 61 62 63 62 62 62 62 61 60 59 57 56 55 55 57 58 58 57 52 46 45 46 47 49 50 51 52 52 52 52 50 49 47 48 49 50 50 50 51 54 57 57 57 57 56 58 59 60 60 62 63 65 68 70 71 71 69 69 68 68 67 65 64 63 63 63 64 64 66 66 64 63 65 66 66 65
60 59 58 58 58 58 58 58 58 59 60 61 62 62 61 61 61 58 56 55 54 53 53 54 55 57 57 51 43 41 41 42 42 44 47 49 50 51 52 51 48 47 47 49 50 50 51 54 58 60 59 58 58 59 61 62 63 64 65 67 69 72 72 69 66 65 64 64 65 65 65 65 64 63 62 62 63 65 66 64 63 64 65 65 64
60 59 57 57 57 57 57 57 56 57 58 58 59 60 60 61 60 56 51 49 48 48 49 49 49 50 48 43 40 42 44 45 45 44 44 45 47 48 49 48 46 45 46 47 49 51 54 58 60 61 61 61 61 62 63 65 66 67 69 72 73 72 68 65 63 63 64 64 65 66 66 66 66 64 62 61 61 62 64 64 64 63 63 64 64
58 58 57 56 57 57 58 58 57 57 57 58 58 58 58 57 55 50 45 41 40 42 42 39 39 39 37 36 39 42 44 46 47 48 47 47 47 47 47 47 46 45 45 48 51 54 57 60 61 61 62 63 63 64 66 67 69 71 73 74 72 67 64 62 63 64 65 65 65 66 66 67 67 66 64 62 61 61 61 63 63 63 63 63 64
58 58 58 57 58 59 59 59 59 58 59 59 57 56 55 53 49 47 45 41 38 39 40 40 41 41 38 35 36 38 40 42 45 47 49 50 49 49 49 49 49 49 51 54 58 59 61 62 63 63 63 64 65 66 67 68 71 74 73 70 66 63 63 62 62 62 62 61 61 61 62 63 64 64 64 63 62 61 61 61 62 63 63 63 63
59 59 59 59 59 60 60 60 60 59 58 54 50 48 47 46 45 46 47 47 47 47 47 47 48 47 44 39 36 35 36 39 42 45 48 50 51 51 51 52 54 56 58 60 61 62 62 62 63 63 63 65 66 67 68 72 74 72 68 64 63 63 62 60 60 60 60 60 60 59 59 59 59 59 60 60 60 60 60 60 61 62 64 63 62
60 59 59 58 58 57 57 57 56 54 49 43 39 40 41 39 40 42 42 44 47 50 50 50 49 47 46 45 44 42 41 42 42 41 43 46 49 51 52 54 56 57 57 57 57 58 59 60 61 63 64 66 67 69 72 73 71 66 63 62 62 60 58 58 59 59 59 59 58 57 56 57 57 58 59 61 62 61 61 60 60 61 63 63 61
56 56 54 52 50 49 49 48 45 41 37 33 34 38 41 41 41 41 39 37 40 44 46 46 45 44 44 45 48 50 50 48 44 40 40 41 43 45 46 48 49 50 51 52 55 57 58 60 62 64 66 68 70 72 72 69 65 62 60 59 57 56 56 56 55 54 54 54 53 52 51 51 52 54 56 58 61 62 62 61 60 60 61 62 61
48 47 44 41 40 38 38 37 34 31 29 29 32 36 40 42 42 42 40 39 39 40 40 39 39 40 40 42 45 48 49 49 46 43 43 43 43 44 44 45 47 49 51 54 56 58 60 63 65 67 69 71 71 70 67 63 60 58 55 53 53 52 52 50 48 48 48 48 47 47 47 47 47 48 50 52 54 57 59 60 60 59 59 60 61
40 37 34 33 32 32 32 32 31 29 30 33 35 36 37 40 41 42 41 39 37 36 36 35 36 38 40 40 41 42 44 46 46 45 45 44 44 45 47 48 50 52 55 57 59 62 64 67 69 69 70 69 67 65 61 58 55 52 50 50 49 49 48 47 47 46 45 44 43 44 45 46 47 47 48 49 49 50 52 55 57 58 57 58 59
33 30 30 31 31 31 30 30 29 28 30 33 34 34 35 36 37 37 37 36 36 36 36 36 37 38 38 39 39 40 42 44 44 43 43 43 45 47 50 52 54 56 58 61 63 65 67 68 68 67 66 64 62 60 57 53 50 48 47 46 45 45 46 47 47 46 45 43 41 40 41 43 44 45 46 47 47 47 48 49 51 54 56 56 56
30 29 31 32 31 29 28 26 26 27 29 31 32 33 34 34 33 33 35 36 36 37 36 36 36 37 37 37 38 39 41 42 42 42 44 46 49 51 53 55 57 59 61 62 63 64 64 64 64 63 61 60 58 55 51 48 46 45 44 43 43 44 45 46 46 46 45 42 40 39 39 41 42 44 46 47 48 49 49 48 47 49 53 54 54
29 30 31 31 29 27 26 26 27 28 29 29 30 32 34 33 32 33 34 33 33 33 33 34 35 36 35 35 36 37 39 41 42 44 47 49 51 52 54 56 57 58 59 59 60 61 61 61 60 59 58 55 52 48 45 44 43 42 41 41 42 43 45 46 45 43 42 41 39 39 39 41 42 44 45 46 48 50 51 50 48 46 48 51 52
30 31 31 31 28 26 26 28 30 30 30 29 30 31 33 33 32 31 30 30 30 32 34 35 35 35 34 34 35 37 40 42 43 45 47 49 51 53 54 54 54 54 55 56 57 59 60 59 57 55 52 48 45 44 42 41 40 39 39 41 43 43 44 43 41 39 37 38 38 38 38 39 40 40 41 41 43 45 49 51 50 47 45 47 49
30 32 32 30 27 26 27 29 29 29 30 31 31 30 29 28 28 28 29 31 33 34 34 34 33 33 34 34 35 37 39 41 43 45 48 50 50 50 50 50 50 51 53 55 57 58 57 54 51 48 46 43 42 41 39 37 37 38 40 41 42 41 41 39 36 34 33 33 34 35 36 36 37 39 40 40 39 40 42 46 49 48 44 43 45
26 27 27 26 25 24 26 26 27 28 29 29 28 26 25 26 27 28 30 31 31 31 31 31 31 31 32 32 34 36 39 41 43 45 46 46 46 46 46 47 49 50 52 53 54 53 50 46 43 43 42 40 38 37 35 36 37 39 41 40 39 38 37 35 32 30 29 30 31 33 35 36 38 39 40 40 39 38 38 40 44 47 44 41 42
20 21 22 23 24 25 27 28 30 33 32 29 26 25 25 25 26 27 27 26 26 27 27 27 28 28 30 32 34 37 39 40 41 42 42 42 43 44 45 46 48 49 50 49 48 46 42 38 38 38 37 35 34 33 34 36 38 39 38 37 35 34 33 31 29 28 28 29 31 33 35 36 37 36 35 34 33 34 35 36 39 43 42 40 40
19 21 24 26 28 29 30 30 31 32 31 28 26 24 24 23 23 23 23 23 23 23 23 23 25 27 29 31 33 35 36 37 38 38 39 40 41 42 42 44 45 45 44 43 41 39 35 33 32 32 31 31 31 31 33 35 36 35 34 33 31 30 28 27 27 27 28 29 31 32 32 32 31 29 28 27 26 29 32 34 36 39 40 38 38
29 30 31 32 31 29 27 24 23 24 24 23 22 21 21 21 21 20 19 18 18 19 20 22 24 25 27 28 30 31 33 34 35 36 37 38 39 39 41 43 42 39 37 37 36 34 31 29 27 27 27 27 27 29 31 32 31 30 29 28 26 25 26 26 26 26 27 28 28 28 28 27 25 23 23 23 23 25 28 30 32 35 37 37 36
34 33 31 28 25 23 21 20 20 20 20 20 19 19 19 18 16 15 14 15 16 18 20 21 22 23 24 25 27 28 30 31 32 33 34 35 37 39 41 41 38 35 34 33 32 31 28 26 24 22 22 23 24 26 27 28 28 27 25 23 21 22 24 24 23 23 24 25 25 24 23 21 20 19 20 20 20 20 22 26 30 34 36 35 35
28 26 24 22 21 21 20 20 20 19 18 18 17 17 15 13 12 11 12 14 15 17 18 19 19 20 21 22 24 25 27 29 30 31 32 34 36 38 38 36 33 32 32 31 30 27 25 23 22 21 21 22 24 24 25 25 25 23 19 17 18 19 20 20 20 21 22 22 20 19 17 16 16 16 16 15 14 13 16 21 27 32 33 33 33
23 22 21 21 21 21 20 19 19 18 17 17 15 13 11 9 10 11 12 13 15 16 16 16 16 17 18 20 22 24 26 27 29 30 32 34 36 36 33 30 29 29 30 29 27 24 22 22 22 22 23 24 24 23 23 22 20 17 15 15 15 16 15 16 17 18 19 18 16 13 12 13 12 11 10 9 8 9 14 20 25 28 30 31 33
21 21 21 21 21 20 19 18 18 17 16 14 12 9 8 9 10 11 12 14 14 14 14 13 14 15 16 19 21 24 26 27 29 30 32 34 35 35 30 27 26 27 27 27 25 22 21 21 22 23 24 25 23 21 20 19 16 13 12 12 13 13 14 15 16 16 15 14 11 9 9 9 8 6 6 5 6 9 13 19 23 26 28 30 32
19 20 20 20 19 19 18 18 17 16 14 11 9 8 8 9 10 11 12 13 13 12 12 12 13 14 16 19 22 24 26 28 30 31 33 34 35 34 30 26 25 25 24 24 24 22 20 20 22 22 23 22 20 18 17 16 13 10 9 10 11 12 13 13 14 14 12 9 7 7 6 5 5 5 5 7 9 11 14 18 22 25 27 30 31
16 17 18 17 17 17 18 17 16 13 11 9 8 8 9 10 10 10 11 11 11 11 12 13 14 16 18 20 22 25 26 28 30 31 33 34 35 34 30 26 25 24 22 21 21 21 19 19 19 19 18 18 17 16 15 13 11 9 8 9 10 11 10 11 13 12 8 5 4 5 5 4 4 5 8 10 12 14 17 19 22 25 29 31 30
14 15 15 16 17 18 18 16 13 11 9 8 8 9 9 9 8 8 10 11 12 11 12 14 15 17 19 21 22 24 26 27 29 31 32 34 35 34 30 27 25 24 22 20 18 18 17 17 16 14 14 15 16 15 12 12 12 9 9 8 8 9 10 11 12 9 5 3 3 5 7 6 6 7 9 11 13 15 18 21 24 27 29 29 27
13 14 14 15 17 17 16 13 10 9 9 8 8 8 8 7 7 8 10 11 11 12 13 14 16 17 19 21 22 23 25 27 28 30 31 34 35 34 31 27 26 25 24 20 16 14 15 15 14 13 14 15 15 13 11 12 13 11 8 6 5 6 8 10 11 6 4 4 4 7 9 9 8 8 10 10 12 14 16 19 22 24 25 25 26
14 14 15 16 16 14 12 10 9 9 9 7 7 7 7 7 8 9 10 10 11 12 14 15 16 18 19 20 21 23 24 26 28 29 31 33 34 34 31 28 27 26 25 22 16 12 12 13 13 13 15 16 14 12 9 12 13 10 7 4 3 4 5 8 8 3 4 6 6 8 12 13 12 12 12 12 13 15 16 19 21 23 24 25 25
14 14 15 15 13 12 11 10 10 9 7 6 6 6 6 7 8 9 9 10 11 12 14 15 16 17 19 20 21 22 24 26 27 29 30 32 33 33 32 30 28 27 26 24 18 12 10 10 11 12 13 13 11 8 7 11 12 10 7 3 2 3 3 4 6 3 4 7 8 11 15 17 16 14 13 12 13 16 18 21 24 26 26 26 24
13 14 14 13 12 11 11 10 9 8 7 6 6 6 7 7 8 8 9 10 11 12 13 14 16 17 18 19 20 21 23 25 27 29 30 31 32 33 32 31 29 27 26 25 21 15 10 8 9 9 9 8 6 5 4 8 10 9 7 3 2 3 2 3 5 5 4 8 11 15 18 19 17 13 9 9 13 17 19 21 23 23 22 21 19
13 14 13 12 12 12 11 9 9 8 8 7 7 7 7 7 8 8 9 10 11 12 12 13 15 16 17 18 20 21 22 24 25 28 29 30 32 33 33 32 30 28 26 25 24 19 12 8 8 7 6 4 3 2 2 7 9 9 8 5 1 1 2 3 4 5 5 9 14 18 19 20 18 14 11 10 13 16 18 18 18 18 17 17 17
14 14 13 13 13 12 11 10 9 9 9 9 8 8 7 7 8 8 10 10 11 12 12 13 14 15 16 17 18 20 22 23 24 27 29 30 31 32 33 33 31 29 27 26 25 22 15 9 7 6 5 4 2 0 2 6 10 11 9 7 6 4 2 4 3 3 5 9 14 17 18 19 19 18 16 14 14 15 15 15 15 15 15 15 16
15 14 14 14 14 13 12 11 11 11 11 10 9 8 7 7 7 9 10 11 11 12 13 13 14 15 16 16 17 19 21 23 24 25 28 29 30 31 32 33 32 30 28 26 26 24 19 12 7 5 5 5 2 1 2 4 8 12 12 10 8 7 5 3 3 3 5 9 11 14 15 17 17 17 18 18 17 17 17 17 16 16 16 15 16
16 16 16 16 15 14 14 13 13 13 12 11 10 8 7 7 8 9 10 11 11 12 13 14 15 16 16 16 16 17 19 21 23 24 26 27 28 29 30 32 32 32 29 27 26 25 22 17 11 5 4 5 3 1 2 3 6 10 12 12 10 10 10 8 6 4 5 8 10 10 12 13 13 14 17 19 20 20 20 19 18 17 17 17 16
Wind_Direction
252 258 262 264 267 272 274 273 272 272 272 270 269 269 269 267 266 266 266 266 266 266 266 266 266 266 265 264 262 261 261 261 261 260 259 259 258 257 256 256 256 256 257 257 258 260 262 264 265 265 266 266 267 267 268 268 268 268 268 267 267 266 263 262 261 261 263 264 263 264 265 266 266 266 266 266 265 264 263 262 260 260 259 259 260
255 262 268 268 268 272 275 275 275 274 271 268 267 270 273 272 271 269 269 269 269 269 268 267 267 267 268 268 266 265 264 264 263 263 263 262 262 262 261 261 260 259 259 259 259 259 260 261 263 264 266 267 267 268 268 268 268 269 269 269 269 269 268 266 265 264 264 266 266 265 265 266 266 267 267 267 266 265 264 263 262 260 259 258 257
253 260 267 267 267 271 275 277 277 275 272 269 268 270 274 277 278 276 273 272 272 271 271 270 268 267 267 268 267 267 266 265 264 264 264 264 264 264 265 265 265 265 264 264 263 263 263 263 262 263 263 265 266 267 267 268 269 269 270 269 269 269 269 269 268 267 266 267 267 266 266 266 266 267 267 267 267 266 266 265 264 262 261 259 257
259 264 266 265 265 268 271 275 278 278 277 275 272 272 273 276 278 279 279 279 277 273 273 273 273 271 269 268 268 267 265 263 263 262 262 263 265 266 267 267 267 267 267 268 268 268 268 268 268 267 267 267 266 266 266 266 267 268 269 270 270 270 270 269 268 268 267 267 268 267 266 266 267 267 267 266 267 267 267 267 266 265 263 261 260
263 267 266 264 266 270 272 273 275 278 279 280 280 278 275 274 275 275 278 282 282 277 273 273 274 274 272 269 268 268 266 263 261 260 261 262 264 266 267 267 267 267 268 268 269 270 271 271 272 272 272 272 271 270 269 267 267 266 267 267 268 269 270 269 269 268 267 267 267 267 266 266 266 268 268 266 266 267 267 267 267 266 265 264 263
263 265 264 263 266 272 276 276 276 276 278 281 283 283 281 277 274 273 274 277 279 277 274 272 272 273 273 271 269 268 267 264 261 261 262 263 265 265 265 265 266 267 268 269 269 270 271 272 273 274 275 275 276 275 274 273 271 269 268 267 267 267 267 268 268 268 268 267 267 267 267 265 265 267 268 267 266 266 267 267 267 267 266 266 264
264 263 262 261 264 269 275 277 276 275 276 278 281 283 282 279 276 273 273 275 276 275 274 271 271 273 274 271 270 269 267 264 263 264 265 266 267 266 265 264 264 265 266 267 267 268 269 272 275 279 280 280 281 281 280 279 277 275 273 271 270 268 267 267 267 266 266 266 267 268 268 266 265 265 266 267 266 266 266 266 266 267 267 266 266
266 265 264 262 262 266 271 274 274 274 274 275 276 278 278 278 278 277 274 275 276 275 273 269 267 272 274 270 269 269 266 264 264 267 269 270 270 269 267 265 263 263 263 263 263 264 267 271 276 279 282 283 284 284 284 284 283 281 279 277 274 272 271 269 268 267 266 265 266 267 267 267 266 265 265 265 266 266 266 265 265 266 266 266 266
267 267 267 267 266 268 271 274 274 273 273 273 273 274 274 275 277 276 274 276 279 277 273 268 266 271 273 270 268 267 265 264 264 266 268 270 271 272 270 268 264 262 261 261 262 263 266 270 274 277 279 281 283 284 285 286 287 286 285 283 281 278 275 273 271 269 268 266 265 266 266 267 267 266 265 264 264 265 265 265 264 265 265 266 266
266 266 267 268 269 270 271 273 274 273 272 272 272 272 271 272 274 273 272 275 278 276 273 271 270 271 272 269 265 263 264 266 267 266 266 267 269 271 272 271 269 265 262 262 263 264 267 270 273 275 277 278 280 282 284 286 287 288 288 288 287 284 281 278 276 273 271 268 267 266 265 266 267 266 265 265 264 263 263 264 264 264 264 264 265
265 265 265 266 267 268 270 271 272 273 272 271 270 269 269 270 271 272 272 275 276 274 273 273 271 270 269 266 262 261 264 268 269 269 268 268 268 268 269 270 271 270 267 264 263 265 267 270 273 274 276 277 279 281 283 284 285 286 288 288 289 289 287 285 281 278 275 271 269 268 266 266 266 267 265 264 264 262 262 262 262 262 263 263 263
265 265 266 266 266 268 269 270 271 272 271 270 268 267 267 267 268 269 271 273 274 275 275 273 270 267 266 264 262 263 264 266 268 269 270 270 269 267 267 269 270 271 269 267 265 265 267 270 272 274 275 276 278 281 283 284 285 286 287 288 289 290 290 289 286 283 280 276 273 271 269 267 266 266 265 264 263 262 262 261 261 260 261 261 262
264 265 266 266 267 268 268 269 269 269 269 269 268 266 266 266 266 268 269 269 270 273 275 273 270 265 264 267 269 269 267 265 266 268 270 273 273 268 266 267 268 269 269 268 266 265 267 270 272 274 275 276 277 280 282 284 285 286 287 289 289 290 290 290 289 287 285 281 277 274 272 269 266 265 265 263 262 262 261 261 260 260 259 259 260
263 264 265 266 267 267 268 268 267 267 266 266 266 265 265 265 265 267 268 267 268 270 271 272 270 265 267 274 275 272 269 266 266 268 271 276 277 269 264 266 269 269 270 269 267 266 267 270 272 275 276 277 277 279 281 283 285 287 288 289 290 291 291 291 291 290 288 285 281 277 275 271 267 265 264 263 261 261 260 260 260 260 259 258 259
264 264 264 265 266 266 266 266 266 266 265 264 265 265 265 265 266 267 268 268 268 270 271 271 270 267 271 276 274 270 269 268 268 270 271 276 277 269 263 267 271 270 270 269 267 266 268 270 273 276 279 279 279 279 281 284 286 287 288 289 290 291 292 292 292 291 290 288 284 280 276 272 268 264 263 262 261 260 259 259 259 259 259 258 258
265 264 264 263 263 263 264 264 265 265 265 265 265 265 266 266 267 266 266 267 269 270 271 271 270 270 272 274 273 270 268 267 268 269 270 273 272 266 265 271 274 272 270 268 266 266 268 270 273 278 281 281 280 279 281 284 286 287 288 290 291 292 293 292 291 290 289 287 284 280 276 272 267 263 261 260 260 259 258 258 258 258 258 258 257
266 266 265 264 263 262 262 262 262 263 263 263 264 265 266 267 267 267 267 268 268 268 269 269 270 272 273 274 273 272 269 267 267 267 268 269 267 264 266 273 277 274 269 267 265 266 268 271 276 281 283 282 281 280 281 284 287 288 289 290 291 292 293 292 290 288 286 284 281 278 274 270 266 263 260 258 258 258 258 257 257 257 257 256 256
266 266 265 265 264 263 262 261 261 261 261 262 262 263 264 266 267 268 268 269 269 269 268 267 267 271 272 270 270 271 269 268 267 267 267 267 265 264 266 272 275 273 268 265 265 266 268 273 279 283 283 283 282 281 282 285 287 289 290 291 292 293 292 290 287 285 282 280 278 276 273 269 265 262 260 258 257 257 257 257 256 256 256 256 256
264 264 264 265 265 265 264 263 261 260 260 261 261 262 263 264 266 268 268 270 271 270 267 266 269 271 267 262 264 269 270 269 268 268 267 267 265 265 266 269 271 269 265 264 265 267 271 277 281 283 283 283 282 281 282 285 287 289 290 291 292 292 290 286 283 280 278 277 275 274 272 270 267 263 260 259 258 258 257 256 255 255 255 256 255
262 262 263 263 264 265 265 264 263 262 261 261 261 261 262 263 265 267 269 271 272 270 267 268 269 267 262 261 268 273 272 270 268 268 268 269 269 268 266 266 267 265 264 266 268 271 275 279 281 282 283 282 281 280 282 285 288 290 291 291 292 290 286 281 279 277 275 274 273 272 272 271 269 267 264 261 260 259 258 257 255 253 253 253 254
260 259 260 261 262 263 263 263 262 262 262 262 261 261 262 263 265 267 269 270 269 266 263 261 261 264 269 275 277 275 272 272 270 268 268 270 273 273 269 265 263 262 265 271 274 276 278 279 280 281 281 281 281 281 283 286 288 289 290 290 289 286 282 279 277 276 275 274 272 271 270 269 269 268 267 265 262 260 259 258 256 253 250 249 250
260 259 259 260 261 261 261 261 261 261 261 262 262 263 264 264 264 262 260 260 260 257 254 254 259 268 277 280 278 274 273 274 274 271 269 269 272 275 272 267 264 264 268 275 279 279 279 279 280 280 280 280 282 284 286 287 288 289 289 288 285 283 281 280 278 276 275 274 272 271 270 269 268 268 267 266 264 261 259 257 256 254 251 247 246
262 261 260 260 261 260 260 260 259 259 260 260 263 266 266 265 264 262 259 257 256 257 259 262 267 271 272 272 274 277 279 281 280 276 272 270 272 274 273 271 269 270 272 276 277 277 277 277 278 279 280 282 285 286 286 287 287 288 287 285 283 282 281 279 277 276 275 274 272 271 269 268 266 265 265 264 262 260 258 255 253 253 251 248 245
262 261 260 259 258 258 257 257 257 258 258 256 255 257 261 261 262 263 262 260 258 260 264 267 269 271 270 267 267 273 280 286 284 279 275 274 273 273 273 272 272 273 274 276 276 276 276 278 279 282 284 285 286 286 286 287 287 286 284 283 282 281 280 278 278 277 275 274 273 271 268 266 264 263 261 260 259 258 257 254 252 250 249 248 245
259 257 256 254 253 252 253 254 254 254 256 252 245 246 251 254 257 261 262 261 260 261 262 264 267 270 270 267 266 268 274 281 282 279 278 278 275 274 274 274 275 276 276 277 277 278 279 281 283 284 285 285 285 286 287 287 286 284 283 282 281 280 279 278 277 276 275 274 272 270 268 265 263 261 260 259 258 258 257 255 253 251 249 248 245
255 253 250 246 244 245 247 248 246 243 245 245 241 239 242 247 253 259 261 260 259 258 259 262 266 269 269 268 267 266 269 275 279 279 280 281 280 279 279 279 280 280 280 280 280 281 282 283 284 284 284 285 286 287 287 286 285 283 282 281 280 280 279 278 277 276 276 275 272 269 266 263 262 261 261 260 259 258 257 255 253 251 250 248 245
249 245 239 234 234 237 239 240 237 232 231 235 239 239 241 245 249 252 254 254 255 256 259 264 268 268 268 269 269 267 269 274 278 280 283 284 284 283 283 282 282 281 281 280 280 280 281 282 283 284 285 287 288 288 287 285 284 283 282 282 282 281 280 279 278 277 276 275 272 268 264 262 261 261 261 260 260 259 257 254 251 248 247 247 246
240 233 228 227 231 235 237 235 234 230 227 230 235 239 242 245 248 251 253 256 258 260 263 265 265 265 266 268 269 270 272 275 278 281 283 283 282 281 280 280 279 279 279 279 279 279 280 282 283 286 288 289 288 287 286 284 283 282 283 283 282 282 281 281 280 278 275 274 273 269 266 263 262 261 261 260 260 259 258 256 251 247 245 245 244
229 225 226 229 232 234 234 231 230 229 229 231 235 239 241 243 247 253 257 258 259 259 259 260 261 263 265 267 269 271 274 276 278 279 280 279 279 279 279 278 278 279 279 280 280 281 282 284 287 288 289 288 287 286 284 283 283 283 283 282 282 282 282 282 281 278 273 271 272 272 269 267 264 262 261 259 258 257 256 255 252 247 244 243 243
225 225 228 230 232 233 231 225 222 223 226 230 235 238 239 241 247 254 256 256 256 257 259 262 265 266 267 268 271 274 275 276 276 277 278 279 280 281 282 281 282 282 283 284 285 286 287 288 289 289 288 287 285 284 283 282 282 281 281 281 282 282 281 282 281 276 270 269 271 272 271 269 266 264 262 259 256 254 252 252 251 248 244 242 241
222 223 225 227 230 230 224 218 215 217 221 225 229 233 237 243 250 253 253 254 258 262 266 269 269 269 269 270 272 274 275 276 278 280 282 284 285 286 286 286 286 287 288 288 289 288 288 289 289 289 287 285 284 283 282 281 280 278 279 281 282 281 281 283 281 276 270 269 270 271 270 269 267 265 263 261 258 254 250 248 247 246 243 239 238
216 218 221 223 225 222 216 212 212 215 219 224 229 234 240 247 250 250 252 257 262 265 266 266 266 266 268 271 274 277 281 283 285 286 287 287 288 288 289 289 289 290 290 289 289 288 288 289 288 287 285 284 283 282 280 278 277 277 280 282 282 280 281 282 280 276 273 271 270 271 270 268 267 266 265 263 260 256 252 247 244 243 241 237 234
203 208 211 213 212 208 207 211 216 221 225 229 233 239 245 249 252 256 259 261 263 262 262 263 266 270 275 279 283 286 288 288 288 288 289 289 290 290 290 290 290 290 290 289 287 286 287 287 286 284 284 283 281 279 277 276 276 279 281 282 280 279 280 280 279 277 276 274 272 271 270 269 269 268 267 264 259 255 252 247 242 239 238 234 230
188 194 197 198 197 196 201 208 216 222 227 232 238 246 252 255 258 259 259 257 258 260 264 270 276 282 287 289 290 290 290 290 290 290 291 290 290 289 290 291 293 293 291 288 286 285 285 285 284 284 283 282 280 277 277 277 279 280 282 281 280 280 279 279 280 281 279 276 273 271 271 272 271 269 266 263 258 252 249 246 241 236 234 231 227
172 179 182 185 188 194 200 206 213 219 226 234 243 249 253 253 252 252 252 255 260 268 276 283 288 290 291 291 291 292 292 292 292 291 291 290 290 290 293 295 297 296 293 289 287 287 287 286 286 286 284 282 280 279 278 279 281 282 283 283 282 280 278 279 280 279 277 274 274 274 274 272 270 267 264 262 259 252 246 243 238 232 228 226 223
166 173 178 183 188 195 203 210 217 224 231 237 241 242 241 242 244 247 254 263 273 281 287 289 290 291 292 293 294 293 293 293 293 292 293 293 294 296 299 301 301 298 294 291 290 291 291 291 289 288 287 285 283 282 282 283 284 285 285 285 282 279 278 278 277 275 274 276 277 277 274 269 267 267 267 265 263 255 246 240 233 225 220 219 218
173 179 184 190 195 202 211 218 223 227 229 229 229 230 232 236 243 252 265 276 282 285 286 287 290 293 295 296 297 298 299 300 301 301 302 303 304 306 307 306 304 300 296 293 293 294 294 292 289 288 289 290 291 291 291 290 290 289 288 284 279 277 277 276 273 273 276 280 279 275 270 268 269 271 270 267 262 254 244 233 222 215 213 213 212
185 188 192 197 203 209 214 216 217 216 217 217 219 223 228 237 250 264 274 277 279 281 286 291 295 298 300 303 306 308 310 312 313 313 313 312 312 312 311 308 305 302 299 297 296 295 292 287 283 284 289 295 298 297 295 293 292 292 289 282 277 275 275 274 273 275 280 282 277 270 267 269 273 273 270 265 260 248 231 218 210 208 208 209 206
197 199 201 203 205 206 206 206 207 208 210 212 214 219 229 244 259 267 271 274 278 283 289 294 298 304 309 313 315 318 320 321 321 320 318 317 318 318 316 313 311 309 305 302 299 295 288 281 278 282 289 295 297 295 293 291 289 287 283 280 279 281 281 279 278 282 285 282 272 263 265 271 272 267 263 261 249 220 206 203 202 203 205 204 200
198 200 200 199 198 197 198 201 204 206 206 206 209 218 234 249 259 265 269 274 279 283 289 296 303 310 316 320 324 326 326 326 325 324 324 324 325 325 323 321 319 317 312 305 300 294 287 282 282 286 291 295 296 293 289 285 281 276 277 282 289 294 291 287 287 289 286 277 265 258 260 264 260 250 243 231 206 191 191 195 197 200 200 196 192
191 191 191 191 192 193 197 201 203 203 201 202 210 224 238 250 259 264 268 273 279 286 295 303 310 314 319 324 328 329 328 328 329 329 330 331 332 332 330 328 327 325 319 309 300 294 292 290 289 290 294 297 296 291 284 276 269 272 285 297 304 304 297 296 301 297 283 266 257 251 244 237 228 213 196 186 181 183 188 191 193 193 189 184 184
186 187 189 190 191 194 198 200 199 197 197 203 214 228 239 247 255 262 270 278 285 293 303 311 316 319 322 326 329 330 330 331 332 333 334 336 338 337 336 335 333 332 327 315 303 298 297 296 293 295 300 301 296 290 279 262 252 264 290 305 314 314 309 311 311 298 272 248 238 225 204 183 176 176 173 170 169 171 175 179 180 179 177 178 182
189 191 191 190 193 196 198 196 192 190 195 204 217 229 237 245 254 268 280 285 291 303 315 321 324 325 327 330 332 332 332 333 336 338 339 341 342 341 340 339 340 339 336 326 312 304 303 302 299 303 309 308 300 292 273 245 235 252 281 301 314 317 318 320 313 289 244 193 194 191 167 148 148 158 159 160 161 162 165 168 169 171 176 180 184
194 192 190 190 194 196 192 186 184 189 197 207 219 229 239 253 269 281 287 292 304 319 329 331 331 331 332 333 335 336 338 339 341 343 344 344 345 345 344 343 344 345 345 340 325 308 304 305 303 306 314 314 307 295 268 234 227 242 268 293 314 317 322 327 319 286 192 153 174 176 152 138 144 152 150 152 157 160 165 169 171 174 177 179 178
197 193 190 192 194 190 182 180 187 195 200 208 222 236 251 269 281 289 295 305 319 330 335 336 337 336 335 336 338 342 344 344 345 347 348 348 348 348 347 347 347 349 351 350 339 314 301 301 300 305 314 316 311 299 263 228 223 236 256 280 320 328 331 337 330 300 161 146 162 164 147 139 143 147 147 151 157 159 160 164 167 168 168 166 167
196 193 192 192 190 185 183 187 193 197 202 214 228 245 261 274 286 296 306 318 330 336 338 338 338 336 337 338 341 345 349 349 349 351 352 351 351 351 351 351 351 351 353 356 351 330 306 300 300 305 313 316 316 308 261 224 220 229 238 248 359 4 358 4 2 11 128 143 156 158 147 136 129 126 128 138 151 156 157 157 158 160 160 160 162
199 196 194 193 192 190 191 194 197 201 208 220 233 248 262 274 287 301 313 324 333 336 336 336 336 336 337 339 342 346 351 354 354 354 354 354 355 355 355 355 354 353 355 359 359 350 329 308 300 306 314 318 325 324 265 223 217 220 223 214 49 37 49 57 40 42 102 142 154 152 141 127 117 113 120 135 142 145 147 149 152 156 159 160 164
206 202 199 198 199 200 199 199 203 209 216 224 234 246 261 275 291 306 317 324 330 333 333 334 334 334 336 340 343 347 352 356 356 355 356 358 358 358 357 357 357 355 356 0 2 360 350 324 305 307 315 318 321 323 232 206 203 206 212 214 197 82 84 82 68 65 99 134 148 149 141 131 127 132 147 157 153 149 150 154 159 164 168 172 179
215 214 212 209 208 207 206 207 212 219 224 228 235 246 262 279 296 309 316 320 325 328 330 332 332 333 334 339 344 347 352 356 357 357 358 0 1 0 359 359 358 358 359 1 4 5 2 348 321 307 303 299 297 285 177 192 193 193 198 210 213 197 132 95 94 101 113 130 144 151 151 149 149 153 160 165 165 163 165 170 176 182 184 187 193
222 222 222 220 217 215 214 216 221 226 230 233 239 248 264 282 296 306 312 315 320 325 328 329 331 331 331 335 341 346 350 354 358 360 359 0 2 3 2 0 0 1 1 2 5 6 8 6 347 308 285 276 270 124 123 173 190 191 194 201 203 191 168 145 141 146 141 142 144 148 152 156 159 164 170 173 175 177 181 185 189 190 189 189 191
230 229 229 228 227 225 224 226 230 234 236 239 244 251 263 278 291 300 306 310 314 319 323 325 327 329 330 332 337 341 346 351 356 360 360 359 1 4 3 3 3 3 3 5 6 7 9 12 9 341 279 258 251 217 121 146 178 188 193 196 194 188 189 194 194 178 164 163 161 158 158 159 162 170 178 182 184 187 189 193 197 198 196 195 194
Height
5708 5709 5709 5709 5709 5707 5707 5707 5708 5709 5710 5710 5710 5710 5710 5711 5711 5712 5712 5713 5714 5715 5715 5716 5716 5716 5717 5717 5718 5718 5718 5719 5719 5720 5720 5721 5721 5722 5722 5723 5724 5724 5724 5725 5725 5725 5725 5725 5725 5725 5726 5726 5727 5727 5727 5728 5728 5729 5729 5730 5730 5731 5732 5734 5735 5739 5740 5740 5740 5740 5739 5739 5740 5740 5740 5741 5741 5741 5742 5743 5744 5746 5747 5748 5749
5705 5706 5706 5706 5706 5705 5704 5704 5704 5705 5706 5707 5708 5708 5708 5708 5709 5710 5710 5710 5711 5712 5713 5713 5713 5714 5714 5714 5715 5715 5715 5715 5716 5716 5716 5717 5717 5717 5718 5718 5719 5720 5720 5721 5721 5721 5722 5722 5721 5721 5721 5722 5722 5722 5722 5723 5723 5723 5723 5724 5724 5724 5725 5727 5728 5731 5734 5734 5734 5734 5734 5734 5735 5734 5734 5735 5735 5735 5736 5737 5739 5740 5741 5743 5743
5702 5702 5702 5702 5702 5702 5702 5701 5701 5701 5702 5703 5704 5705 5705 5705 5706 5707 5707 5708 5708 5709 5710 5710 5711 5711 5711 5711 5712 5712 5712 5712 5712 5712 5712 5712 5713 5713 5713 5713 5714 5714 5715 5715 5716 5716 5717 5717 5718 5718 5718 5718 5718 5718 5718 5718 5718 5718 5718 5718 5718 5719 5719 5720 5721 5723 5726 5728 5728 5728 5729 5728 5729 5729 5729 5729 5729 5729 5730 5731 5732 5734 5735 5736 5737
5698 5699 5699 5698 5698 5699 5699 5698 5697 5698 5698 5699 5700 5701 5701 5702 5702 5703 5704 5705 5705 5706 5706 5707 5707 5707 5708 5708 5708 5708 5708 5708 5708 5708 5708 5708 5708 5709 5709 5709 5709 5709 5709 5710 5710 5711 5712 5712 5712 5713 5713 5713 5713 5713 5713 5713 5713 5713 5713 5712 5712 5712 5712 5713 5714 5715 5718 5721 5722 5722 5723 5723 5722 5722 5722 5723 5723 5723 5724 5725 5726 5727 5728 5730 5731
5694 5694 5695 5695 5694 5695 5695 5695 5695 5695 5695 5695 5696 5697 5697 5698 5698 5698 5699 5700 5701 5702 5702 5703 5703 5703 5704 5704 5704 5705 5705 5705 5705 5705 5704 5705 5705 5704 5704 5704 5704 5704 5704 5705 5705 5706 5706 5707 5707 5707 5708 5708 5707 5707 5708 5708 5708 5708 5708 5707 5707 5707 5706 5706 5707 5708 5710 5713 5715 5715 5716 5717 5717 5715 5715 5716 5717 5717 5718 5718 5719 5720 5721 5723 5725
5689 5690 5690 5690 5690 5691 5691 5691 5692 5692 5692 5692 5692 5692 5692 5693 5693 5694 5694 5695 5696 5697 5698 5698 5698 5699 5699 5699 5699 5700 5701 5701 5701 5701 5701 5701 5701 5700 5700 5700 5699 5699 5700 5700 5701 5701 5701 5701 5701 5702 5702 5702 5702 5702 5702 5702 5702 5702 5702 5702 5702 5702 5702 5701 5700 5701 5702 5703 5706 5707 5709 5710 5711 5710 5708 5708 5710 5711 5711 5711 5712 5713 5715 5716 5717
5683 5684 5685 5685 5686 5687 5687 5687 5687 5687 5688 5688 5688 5688 5687 5686 5687 5688 5689 5690 5691 5692 5692 5693 5693 5693 5693 5693 5694 5694 5695 5695 5696 5696 5696 5696 5696 5696 5695 5695 5695 5695 5695 5695 5696 5696 5696 5696 5696 5696 5696 5697 5697 5697 5696 5696 5696 5696 5696 5696 5696 5696 5696 5696 5695 5695 5695 5696 5697 5699 5700 5702 5703 5704 5702 5701 5702 5703 5704 5704 5706 5706 5708 5709 5710
5678 5678 5679 5680 5680 5681 5681 5682 5682 5683 5683 5684 5684 5684 5682 5680 5680 5682 5683 5684 5684 5685 5686 5687 5687 5687 5687 5687 5687 5688 5688 5689 5690 5690 5691 5691 5691 5691 5691 5691 5691 5691 5690 5690 5690 5690 5691 5691 5691 5691 5690 5691 5691 5691 5691 5691 5691 5690 5690 5689 5690 5690 5690 5690 5689 5689 5689 5690 5690 5690 5691 5693 5695 5695 5695 5694 5694 5695 5695 5697 5699 5699 5700 5702 5703
5672 5673 5673 5674 5674 5674 5675 5676 5676 5677 5678 5679 5679 5679 5678 5675 5675 5676 5677 5678 5678 5679 5679 5680 5680 5681 5681 5681 5681 5682 5682 5683 5683 5684 5684 5685 5685 5686 5686 5686 5686 5686 5685 5685 5685 5685 5685 5685 5685 5685 5685 5685 5685 5685 5685 5684 5684 5684 5684 5683 5683 5683 5683 5683 5683 5683 5682 5683 5683 5683 5684 5685 5685 5686 5686 5686 5687 5687 5687 5688 5691 5692 5693 5694 5696
5665 5667 5667 5667 5667 5667 5668 5669 5670 5671 5672 5673 5673 5673 5672 5671 5670 5671 5671 5672 5672 5672 5672 5673 5673 5674 5674 5675 5675 5675 5676 5677 5677 5677 5678 5678 5679 5680 5680 5680 5680 5680 5680 5680 5679 5679 5679 5679 5679 5679 5679 5679 5679 5679 5679 5678 5678 5678 5677 5677 5676 5676 5676 5676 5676 5676 5676 5676 5676 5676 5677 5678 5677 5676 5677 5678 5678 5679 5680 5680 5682 5684 5685 5687 5688
5659 5660 5660 5660 5660 5661 5661 5662 5663 5664 5665 5666 5666 5666 5666 5666 5665 5664 5664 5665 5665 5665 5666 5666 5667 5667 5668 5669 5669 5669 5670 5670 5671 5671 5671 5672 5673 5673 5673 5674 5674 5674 5674 5674 5674 5673 5673 5673 5673 5673 5673 5672 5672 5672 5672 5671 5671 5671 5670 5670 5669 5669 5668 5668 5668 5668 5667 5668 5669 5669 5669 5670 5669 5668 5668 5669 5669 5670 5671 5672 5674 5675 5677 5679 5681
5652 5652 5653 5653 5653 5654 5655 5655 5656 5657 5657 5658 5659 5659 5659 5660 5659 5657 5658 5659 5659 5659 5660 5660 5660 5661 5662 5663 5663 5663 5663 5663 5664 5665 5665 5666 5666 5666 5666 5667 5668 5668 5668 5668 5668 5667 5667 5667 5667 5666 5666 5665 5665 5665 5664 5664 5664 5664 5663 5663 5662 5662 5661 5660 5660 5660 5659 5659 5660 5661 5661 5661 5662 5661 5660 5660 5660 5661 5662 5664 5665 5666 5668 5670 5673
5644 5645 5645 5646 5646 5646 5647 5648 5649 5650 5650 5650 5651 5652 5652 5653 5652 5651 5651 5653 5653 5653 5654 5654 5653 5654 5655 5656 5657 5657 5656 5657 5657 5658 5659 5659 5659 5659 5660 5660 5661 5661 5661 5661 5661 5661 5661 5661 5661 5660 5659 5658 5658 5657 5657 5656 5656 5656 5656 5655 5655 5654 5653 5652 5651 5651 5651 5651 5651 5652 5651 5651 5653 5654 5652 5650 5651 5652 5653 5654 5655 5657 5659 5662 5664
5637 5637 5638 5638 5638 5639 5639 5640 5641 5642 5642 5642 5642 5643 5644 5644 5644 5644 5645 5645 5647 5647 5647 5648 5649 5649 5649 5650 5650 5650 5650 5650 5651 5651 5652 5652 5652 5652 5653 5653 5654 5654 5654 5654 5654 5654 5654 5654 5654 5653 5652 5651 5650 5649 5648 5648 5648 5648 5647 5647 5646 5645 5644 5643 5642 5641 5640 5640 5641 5643 5642 5641 5642 5644 5643 5642 5643 5643 5644 5645 5646 5647 5649 5652 5655
5629 5629 5630 5630 5630 5630 5631 5631 5632 5633 5634 5634 5634 5635 5636 5636 5637 5638 5639 5639 5640 5640 5640 5642 5643 5643 5643 5643 5643 5643 5643 5644 5644 5645 5645 5645 5645 5645 5646 5646 5646 5646 5647 5647 5647 5647 5647 5647 5647 5646 5645 5644 5642 5640 5640 5639 5639 5639 5639 5638 5637 5636 5635 5634 5631 5630 5629 5628 5629 5631 5631 5631 5631 5632 5633 5633 5633 5634 5634 5635 5636 5638 5640 5642 5646
5620 5621 5621 5621 5622 5622 5623 5623 5624 5625 5625 5626 5626 5627 5628 5628 5630 5632 5632 5633 5633 5634 5634 5635 5635 5636 5636 5636 5636 5635 5636 5637 5637 5637 5638 5638 5639 5639 5639 5639 5639 5639 5639 5639 5639 5640 5639 5639 5639 5638 5637 5636 5634 5633 5631 5631 5631 5630 5630 5629 5628 5627 5626 5623 5620 5619 5617 5616 5616 5617 5618 5619 5619 5620 5622 5622 5623 5624 5624 5625 5628 5629 5630 5633 5636
5611 5611 5612 5612 5613 5613 5614 5615 5616 5617 5617 5618 5619 5619 5620 5620 5622 5624 5625 5625 5626 5628 5628 5628 5628 5628 5628 5629 5629 5628 5628 5629 5629 5630 5630 5631 5632 5632 5632 5632 5632 5631 5631 5631 5632 5632 5632 5631 5630 5630 5629 5628 5626 5624 5623 5622 5622 5621 5620 5620 5618 5617 5616 5613 5609 5607 5605 5604 5604 5604 5605 5607 5607 5608 5610 5611 5612 5612 5613 5617 5620 5619 5620 5623 5627
5601 5601 5603 5604 5604 5605 5606 5607 5608 5609 5610 5610 5611 5612 5612 5613 5614 5615 5617 5618 5619 5620 5621 5621 5621 5621 5622 5622 5622 5622 5622 5622 5622 5623 5623 5624 5624 5625 5625 5625 5625 5624 5624 5624 5625 5624 5624 5623 5622 5621 5620 5619 5617 5616 5614 5612 5612 5611 5610 5609 5609 5608 5606 5602 5599 5597 5594 5592 5592 5591 5592 5594 5595 5597 5599 5600 5601 5600 5602 5608 5610 5608 5610 5614 5617
5592 5593 5594 5596 5596 5597 5598 5599 5600 5601 5602 5603 5604 5605 5605 5606 5606 5608 5609 5610 5612 5613 5614 5614 5614 5615 5616 5616 5616 5616 5616 5616 5616 5616 5616 5616 5616 5617 5617 5617 5617 5617 5617 5617 5617 5617 5616 5615 5614 5613 5611 5610 5608 5607 5605 5602 5602 5601 5599 5598 5598 5598 5594 5590 5588 5586 5584 5583 5581 5580 5581 5581 5582 5585 5588 5590 5591 5590 5592 5596 5599 5599 5602 5605 5607
5583 5585 5587 5588 5589 5589 5590 5590 5592 5593 5594 5595 5596 5597 5598 5599 5599 5601 5603 5604 5605 5606 5606 5608 5609 5609 5609 5609 5609 5609 5610 5610 5610 5610 5610 5609 5609 5610 5610 5609 5609 5610 5610 5610 5610 5610 5609 5607 5606 5604 5602 5601 5600 5598 5596 5593 5591 5590 5589 5587 5587 5586 5582 5579 5577 5575 5573 5573 5572 5571 5571 5571 5571 5574 5576 5579 5581 5582 5582 5584 5587 5590 5593 5595 5596
5575 5577 5579 5580 5581 5581 5582 5582 5584 5585 5586 5587 5589 5590 5591 5592 5593 5595 5597 5598 5599 5599 5600 5602 5602 5603 5603 5602 5602 5603 5603 5603 5603 5603 5603 5603 5603 5603 5603 5602 5602 5602 5603 5603 5602 5602 5601 5599 5598 5596 5594 5592 5590 5588 5586 5584 5581 5580 5578 5575 5574 5572 5569 5568 5566 5564 5563 5563 5562 5561 5562 5562 5562 5563 5565 5567 5570 5572 5572 5573 5575 5578 5581 5584 5586
5566 5568 5570 5571 5572 5572 5573 5575 5576 5578 5578 5580 5582 5583 5584 5586 5589 5590 5592 5592 5593 5594 5595 5595 5596 5596 5597 5597 5597 5597 5597 5597 5596 5596 5596 5596 5597 5597 5596 5596 5595 5595 5596 5596 5595 5593 5592 5591 5589 5587 5585 5583 5581 5579 5577 5574 5572 5570 5567 5564 5561 5559 5557 5556 5554 5553 5552 5552 5551 5552 5552 5551 5552 5553 5554 5556 5558 5560 5561 5563 5564 5566 5569 5572 5576
5556 5558 5560 5562 5562 5563 5564 5566 5568 5570 5571 5574 5576 5578 5579 5581 5583 5584 5585 5587 5587 5588 5589 5589 5590 5590 5591 5592 5592 5592 5592 5591 5590 5590 5589 5590 5590 5590 5589 5589 5588 5588 5588 5588 5586 5585 5584 5582 5580 5578 5575 5573 5571 5569 5567 5564 5561 5559 5556 5553 5550 5548 5547 5545 5543 5542 5542 5541 5541 5542 5542 5542 5542 5543 5543 5544 5545 5547 5549 5551 5553 5554 5556 5560 5565
5545 5548 5550 5551 5553 5554 5555 5557 5560 5562 5564 5568 5572 5574 5575 5576 5576 5577 5579 5581 5582 5583 5583 5584 5584 5584 5585 5586 5586 5586 5586 5585 5585 5584 5584 5584 5583 5583 5582 5581 5580 5579 5580 5579 5578 5576 5575 5573 5571 5568 5566 5563 5561 5559 5556 5553 5550 5547 5545 5542 5540 5538 5536 5535 5534 5532 5532 5531 5531 5532 5532 5532 5532 5532 5533 5533 5533 5534 5536 5539 5542 5544 5546 5550 5555
5535 5537 5540 5542 5544 5546 5548 5551 5553 5556 5559 5563 5566 5569 5570 5571 5571 5572 5574 5575 5577 5578 5578 5578 5578 5578 5579 5579 5580 5580 5580 5580 5580 5579 5578 5578 5577 5576 5575 5574 5573 5572 5571 5571 5569 5567 5565 5563 5560 5558 5555 5553 5550 5548 5545 5542 5538 5536 5534 5532 5530 5528 5527 5526 5524 5523 5522 5522 5522 5522 5522 5522 5521 5521 5522 5522 5523 5524 5526 5529 5532 5535 5537 5541 5545
5526 5529 5532 5534 5537 5540 5543 5546 5548 5551 5555 5558 5561 5562 5565 5566 5567 5568 5569 5570 5571 5572 5572 5573 5574 5574 5574 5574 5574 5574 5574 5575 5574 5573 5572 5571 5570 5569 5568 5567 5565 5564 5563 5561 5560 5557 5555 5552 5549 5547 5545 5542 5539 5536 5533 5530 5528 5526 5524 5522 5521 5519 5518 5516 5515 5514 5514 5513 5513 5513 5513 5512 5512 5512 5512 5513 5514 5515 5517 5519 5522 5526 5529 5532 5535
5520 5523 5526 5529 5532 5535 5538 5540 5543 5547 5550 5553 5555 5557 5560 5562 5564 5565 5565 5566 5567 5567 5568 5569 5569 5569 5569 5569 5569 5569 5569 5569 5568 5567 5566 5564 5563 5562 5560 5559 5557 5556 5554 5552 5550 5548 5545 5542 5539 5536 5534 5531 5528 5524 5522 5520 5518 5517 5515 5513 5512 5510 5509 5508 5507 5506 5506 5505 5505 5505 5504 5504 5504 5504 5505 5505 5506 5507 5508 5509 5512 5516 5520 5523 5527
5515 5519 5522 5525 5528 5530 5533 5536 5540 5543 5545 5548 5551 5554 5556 5558 5559 5561 5561 5562 5562 5563 5564 5565 5565 5564 5564 5565 5564 5564 5563 5563 5562 5561 5559 5558 5556 5555 5553 5551 5550 5548 5546 5543 5541 5538 5535 5532 5529 5526 5523 5520 5517 5514 5512 5510 5509 5508 5507 5505 5504 5502 5501 5499 5498 5498 5498 5497 5497 5497 5497 5497 5497 5497 5497 5498 5499 5500 5500 5501 5504 5507 5511 5514 5519
5512 5515 5518 5521 5523 5526 5529 5533 5536 5539 5542 5544 5547 5550 5552 5553 5555 5556 5557 5557 5558 5558 5559 5560 5560 5559 5559 5559 5559 5559 5558 5557 5556 5554 5553 5551 5550 5548 5546 5544 5542 5540 5537 5534 5531 5528 5525 5523 5520 5517 5514 5511 5508 5505 5504 5502 5501 5500 5499 5498 5497 5495 5494 5492 5490 5490 5489 5489 5490 5490 5490 5490 5490 5490 5490 5491 5491 5492 5492 5494 5496 5499 5503 5507 5512
5509 5512 5515 5517 5520 5523 5527 5530 5533 5536 5539 5542 5544 5547 5548 5549 5551 5552 5552 5553 5554 5555 5555 5555 5555 5554 5554 5554 5554 5553 5552 5551 5550 5548 5547 5545 5543 5540 5538 5535 5533 5531 5528 5524 5521 5518 5515 5513 5511 5508 5505 5502 5499 5498 5496 5495 5493 5493 5492 5491 5490 5489 5487 5485 5483 5482 5481 5482 5483 5483 5482 5482 5482 5482 5482 5482 5483 5483 5484 5486 5488 5492 5495 5500 5505
5506 5509 5511 5514 5517 5521 5525 5527 5530 5533 5536 5538 5541 5543 5544 5546 5547 5548 5549 5550 5551 5551 5552 5551 5551 5551 5550 5549 5548 5548 5547 5545 5544 5542 5540 5538 5535 5532 5530 5527 5525 5522 5519 5516 5513 5509 5506 5505 5502 5499 5497 5494 5492 5490 5489 5488 5487 5486 5486 5485 5483 5482 5480 5478 5477 5476 5475 5476 5476 5475 5475 5475 5474 5474 5474 5474 5474 5475 5476 5478 5481 5484 5488 5493 5498
5501 5505 5508 5512 5516 5520 5522 5525 5527 5530 5533 5535 5537 5539 5542 5543 5545 5546 5547 5547 5548 5548 5548 5547 5547 5547 5546 5544 5543 5542 5541 5539 5537 5535 5533 5531 5528 5525 5523 5520 5518 5515 5512 5508 5504 5501 5498 5497 5495 5492 5489 5487 5485 5484 5483 5482 5482 5481 5480 5479 5477 5475 5474 5472 5471 5470 5470 5469 5469 5469 5468 5468 5468 5467 5467 5467 5467 5468 5469 5471 5474 5478 5482 5486 5491
5499 5504 5508 5512 5515 5518 5521 5523 5526 5529 5531 5533 5535 5538 5539 5541 5542 5543 5543 5544 5544 5544 5544 5544 5543 5542 5541 5540 5538 5537 5535 5533 5531 5529 5527 5525 5522 5520 5517 5514 5511 5508 5505 5500 5496 5493 5491 5490 5487 5485 5483 5481 5479 5478 5477 5477 5476 5475 5474 5473 5471 5470 5468 5467 5466 5465 5464 5464 5463 5463 5462 5462 5461 5461 5460 5460 5461 5461 5463 5464 5467 5471 5476 5480 5485
5500 5504 5508 5512 5515 5517 5520 5522 5524 5526 5529 5531 5534 5535 5537 5538 5539 5540 5540 5541 5541 5541 5540 5540 5539 5537 5536 5534 5533 5531 5530 5528 5526 5524 5522 5519 5517 5515 5512 5508 5505 5500 5496 5492 5488 5486 5485 5484 5481 5478 5477 5475 5474 5473 5472 5471 5470 5469 5468 5467 5466 5464 5463 5462 5461 5460 5460 5459 5458 5457 5457 5456 5455 5454 5454 5453 5454 5455 5457 5458 5461 5465 5470 5475 5480
5502 5505 5508 5511 5514 5515 5518 5520 5522 5525 5528 5530 5532 5533 5534 5535 5536 5537 5537 5538 5538 5537 5536 5535 5534 5533 5532 5530 5528 5527 5525 5523 5521 5519 5517 5514 5512 5509 5506 5503 5499 5493 5488 5484 5481 5480 5479 5478 5475 5473 5472 5470 5469 5468 5467 5466 5464 5463 5462 5461 5460 5459 5458 5457 5457 5456 5455 5455 5454 5453 5451 5450 5450 5449 5448 5448 5449 5450 5451 5453 5456 5460 5466 5471 5476
5502 5505 5507 5509 5511 5514 5517 5520 5522 5524 5526 5528 5529 5530 5532 5533 5534 5534 5535 5535 5534 5533 5532 5532 5531 5530 5528 5526 5525 5523 5521 5519 5517 5515 5512 5509 5507 5504 5500 5496 5492 5487 5483 5479 5476 5474 5473 5471 5470 5469 5467 5466 5465 5463 5462 5460 5459 5458 5457 5457 5456 5455 5454 5454 5453 5452 5452 5450 5449 5448 5447 5446 5445 5445 5444 5444 5444 5445 5446 5448 5452 5456 5462 5467 5472
5502 5504 5506 5509 5512 5514 5516 5518 5520 5522 5524 5525 5527 5529 5530 5531 5532 5532 5531 5531 5530 5530 5530 5529 5528 5527 5525 5523 5521 5519 5517 5515 5512 5510 5507 5504 5501 5497 5493 5489 5484 5480 5477 5474 5471 5469 5467 5466 5465 5464 5463 5462 5460 5458 5457 5455 5455 5454 5453 5453 5452 5452 5451 5450 5450 5449 5448 5447 5445 5444 5443 5442 5442 5441 5441 5441 5441 5441 5442 5444 5448 5453 5458 5464 5469
5503 5505 5507 5509 5511 5513 5515 5516 5518 5520 5522 5524 5526 5527 5528 5528 5529 5529 5529 5528 5528 5528 5527 5526 5525 5524 5522 5520 5518 5516 5514 5511 5509 5506 5503 5500 5496 5492 5487 5483 5478 5475 5471 5468 5466 5464 5462 5461 5460 5460 5459 5457 5456 5454 5453 5452 5451 5451 5451 5450 5450 5449 5448 5447 5447 5446 5445 5443 5442 5441 5440 5439 5439 5439 5439 5439 5438 5439 5440 5443 5447 5452 5457 5462 5467
5503 5505 5507 5508 5510 5512 5513 5515 5517 5519 5521 5523 5524 5525 5525 5526 5526 5526 5527 5527 5526 5526 5525 5524 5523 5521 5519 5518 5516 5514 5511 5509 5506 5502 5499 5495 5491 5487 5482 5478 5474 5470 5466 5463 5461 5460 5458 5457 5456 5456 5455 5453 5452 5451 5449 5448 5448 5449 5449 5448 5447 5447 5446 5445 5444 5443 5442 5440 5439 5438 5438 5438 5438 5438 5438 5438 5438 5439 5440 5443 5448 5452 5457 5461 5466
5503 5504 5506 5507 5509 5511 5512 5514 5516 5518 5520 5521 5521 5522 5523 5524 5524 5525 5525 5525 5524 5523 5523 5521 5520 5519 5517 5515 5513 5511 5508 5505 5502 5499 5495 5491 5487 5482 5478 5474 5470 5466 5462 5459 5457 5456 5455 5454 5453 5452 5451 5449 5448 5447 5446 5446 5446 5447 5447 5446 5445 5444 5443 5443 5442 5440 5439 5438 5437 5437 5437 5437 5437 5437 5438 5438 5439 5440 5442 5445 5449 5453 5457 5461 5466
5502 5503 5504 5506 5508 5510 5512 5514 5516 5517 5518 5519 5519 5520 5521 5522 5523 5523 5523 5523 5522 5521 5520 5519 5517 5516 5514 5512 5510 5508 5505 5502 5499 5495 5491 5487 5483 5478 5474 5470 5467 5463 5460 5456 5454 5453 5452 5451 5450 5449 5447 5446 5445 5444 5444 5444 5445 5445 5445 5445 5444 5443 5441 5441 5439 5438 5437 5437 5436 5436 5437 5437 5438 5438 5438 5439 5440 5442 5444 5447 5450 5453 5457 5462 5467
5501 5503 5504 5506 5508 5510 5512 5513 5514 5515 5516 5517 5518 5519 5520 5520 5521 5521 5521 5521 5520 5519 5518 5516 5515 5513 5511 5510 5507 5505 5502 5499 5496 5492 5488 5484 5480 5475 5471 5468 5464 5461 5458 5454 5451 5450 5449 5448 5447 5446 5444 5443 5443 5442 5442 5442 5443 5444 5444 5443 5443 5441 5440 5439 5438 5437 5436 5436 5436 5436 5437 5438 5439 5439 5440 5441 5442 5443 5446 5448 5451 5454 5458 5463 5468
5501 5503 5505 5506 5508 5509 5511 5512 5513 5514 5515 5516 5517 5518 5518 5519 5519 5519 5520 5520 5519 5517 5515 5513 5512 5510 5509 5507 5505 5503 5500 5496 5493 5489 5486 5482 5477 5473 5469 5466 5462 5459 5455 5452 5449 5448 5447 5446 5444 5443 5442 5441 5441 5440 5440 5441 5442 5443 5443 5442 5442 5441 5439 5438 5437 5437 5436 5436 5436 5437 5438 5439 5440 5441 5442 5443 5444 5445 5447 5450 5453 5456 5460 5464 5469
5502 5504 5505 5507 5508 5509 5510 5511 5512 5513 5514 5515 5516 5517 5517 5518 5518 5518 5519 5518 5517 5515 5513 5511 5510 5508 5506 5505 5503 5500 5497 5494 5491 5487 5484 5480 5476 5471 5468 5464 5461 5457 5454 5451 5448 5446 5445 5444 5443 5442 5441 5440 5439 5439 5439 5440 5441 5442 5442 5441 5441 5440 5439 5438 5437 5437 5436 5437 5437 5438 5439 5440 5441 5443 5444 5445 5446 5448 5450 5453 5456 5459 5463 5466 5470
5502 5504 5506 5507 5508 5509 5510 5510 5511 5512 5513 5514 5515 5515 5516 5516 5517 5517 5517 5516 5514 5512 5510 5509 5507 5506 5505 5503 5501 5498 5496 5492 5489 5486 5482 5478 5474 5470 5467 5463 5459 5456 5453 5450 5447 5445 5444 5443 5442 5441 5440 5439 5438 5437 5438 5439 5440 5441 5441 5441 5441 5440 5439 5439 5438 5437 5437 5438 5439 5440 5441 5441 5443 5445 5446 5448 5449 5451 5453 5455 5458 5461 5465 5468 5472
5503 5504 5506 5507 5508 5508 5509 5509 5510 5511 5512 5512 5513 5514 5515 5515 5515 5515 5515 5514 5512 5511 5509 5507 5506 5504 5503 5501 5499 5497 5494 5491 5488 5485 5481 5478 5474 5470 5466 5462 5458 5455 5452 5449 5447 5444 5443 5442 5441 5441 5440 5438 5437 5436 5437 5438 5439 5440 5441 5441 5440 5440 5440 5439 5439 5439 5438 5439 5441 5442 5443 5444 5446 5447 5449 5451 5452 5454 5456 5458 5460 5464 5467 5470 5473
5502 5504 5505 5506 5506 5507 5507 5508 5509 5510 5510 5511 5512 5513 5513 5514 5514 5513 5512 5511 5510 5509 5508 5506 5505 5503 5501 5500 5498 5496 5493 5490 5487 5484 5481 5477 5474 5470 5466 5461 5458 5455 5452 5449 5446 5444 5442 5441 5440 5440 5439 5438 5436 5436 5436 5437 5439 5440 5440 5440 5440 5440 5440 5440 5441 5441 5441 5441 5442 5444 5445 5446 5448 5450 5453 5454 5456 5457 5459 5461 5464 5466 5469 5472 5474
5501 5502 5503 5504 5504 5505 5506 5507 5508 5509 5510 5511 5511 5512 5512 5512 5512 5511 5510 5510 5509 5508 5507 5505 5504 5502 5500 5498 5496 5494 5492 5490 5487 5484 5481 5477 5474 5470 5466 5462 5458 5455 5453 5450 5447 5444 5441 5440 5439 5439 5438 5438 5437 5436 5436 5437 5438 5439 5440 5440 5441 5441 5441 5442 5442 5443 5443 5443 5444 5446 5447 5448 5450 5453 5455 5457 5458 5460 5462 5464 5467 5469 5471 5473 5476
5500 5501 5501 5502 5503 5504 5505 5506 5507 5508 5509 5509 5510 5510 5510 5510 5510 5509 5509 5508 5507 5507 5505 5504 5503 5501 5499 5497 5496 5493 5491 5489 5486 5483 5480 5477 5474 5470 5466 5462 5459 5456 5453 5450 5447 5444 5441 5440 5439 5438 5438 5437 5437 5436 5436 5436 5437 5439 5440 5440 5441 5442 5442 5443 5443 5444 5445 5445 5446 5447 5449 5450 5452 5454 5456 5458 5460 5462 5464 5466 5469 5471 5472 5475 5477
5499 5499 5500 5501 5502 5502 5503 5505 5506 5507 5507 5508 5508 5508 5508 5508 5508 5507 5507 5506 5506 5505 5504 5503 5502 5500 5498 5497 5495 5493 5491 5488 5486 5483 5481 5478 5475 5471 5467 5464 5460 5457 5454 5451 5448 5445 5442 5440 5439 5438 5438 5437 5437 5436 5436 5436 5437 5438 5439 5440 5441 5441 5442 5443 5444 5445 5447 5448 5448 5449 5451 5452 5454 5456 5458 5460 5461 5463 5465 5467 5469 5472 5473 5475 5477
5497 5498 5499 5499 5500 5501 5502 5503 5504 5505 5505 5506 5505 5505 5505 5505 5505 5505 5505 5505 5504 5504 5503 5502 5500 5499 5497 5496 5494 5492 5490 5488 5486 5484 5481 5479 5476 5473 5469 5465 5462 5458 5455 5452 5449 5446 5443 5441 5439 5438 5437 5437 5436 5436 5436 5436 5437 5438 5439 5440 5441 5442 5442 5443 5445 5446 5448 5449 5450 5451 5453 5454 5455 5457 5459 5460 5462 5464 5466 5468 5470 5472 5474 5476 5477